Regional Weather Roundup
Issued by NWS Little Rock, AR

Home | Current Version | Previous Version | Text Only | Print | Product List | Glossary On
Versions: 1 2 3 4 5 6 7 8 9 10 11 12 13 14 15 16 17 18 19 20 21 22 23 24 25 26 27 28 29 30 31 32 33 34 35 36 37 38 39 40 41 42 43 44 45 46 47 48 49 50
000
ASUS44 KLZK 120705
RWRLZK

WEATHER ROUNDUP FOR ARKANSAS
NATIONAL WEATHER SERVICE LITTLE ROCK AR
200 AM CDT SAT JUL 12 2014

NOTE: "FAIR" INDICATES FEW OR NO CLOUDS BELOW 12,000 FEET WITH NO
SIGNIFICANT WEATHER AND/OR OBSTRUCTIONS TO VISIBILITY.

ARZ001-003-010-029-120800-
NORTHWEST ARKANSAS

CITY           SKY/WX    TMP DP  RH WIND       PRES   REMARKS
FAYETTEVILLE   CLEAR     69  69 100 CALM      30.17S
FORT SMITH     CLEAR     78  71  79 NE3       30.12S
HARRISON       CLEAR     74  71  91 S3        30.17F
BENTONVILLE    CLEAR     73  66  78 S3        30.17S
ROGERS         CLEAR     74  68  81 SE6       30.18R
SILOAM SPGS    CLEAR     73  64  73 SE5       30.17S
HIGHFILL       CLEAR     72  69  90 S3        30.16S
$$

ARZ004-005-016-120800-
NORTH CENTRAL ARKANSAS

CITY           SKY/WX    TMP DP  RH WIND       PRES   REMARKS
BATESVILLE     CLEAR     75  73  94 S3        30.14F
FLIPPIN        CLEAR     75  72  88 SW3       30.14F
MTN HOME       CLEAR     74  74 100 CALM      30.14F FOG
$$

ARZ040-041-120800-
WEST CENTRAL ARKANSAS

CITY           SKY/WX    TMP DP  RH WIND       PRES   REMARKS
MENA           CLEAR     73 N/A N/A CALM      30.18S
MOUNT IDA      CLEAR     73  72  96 CALM      30.14F FOG
$$

ARZ009-017-025-026-028-120800-
NORTHEAST ARKANSAS

CITY           SKY/WX    TMP DP  RH WIND       PRES   REMARKS
CORNING        FAIR      75  75 100 SW5       30.13F
JONESBORO      CLEAR     73  71  93 CALM      30.13F
NEWPORT        PTCLDY    75  75 100 W3        30.14F
WALNUT RIDGE   CLEAR     75  72  88 SW3       30.13S
BLYTHEVILLE    CLEAR     75  73  93 CALM      30.13F
$$

ARZ022-023-033-042-044-120800-
CENTRAL ARKANSAS

CITY           SKY/WX    TMP DP  RH WIND       PRES   REMARKS
LITTLE ROCK    CLEAR     76  72  87 CALM      30.14S
N LITTLE ROCK    N/A     75  74  95 SW2       30.14S
JACKSONVILLE   PTCLDY    74  73  98 CALM      30.14F
SEARCY         CLEAR     73  73 100 CALM      30.15S FOG
HOT SPRINGS    CLEAR     76  73  91 CALM      30.15F
RUSSELLVILLE   CLEAR     76  74  93 CALM      30.13F FOG
CLINTON        FAIR      73  73 100 CALM      30.16S FOG
$$

ARZ036-120800-
EAST ARKANSAS

CITY           SKY/WX    TMP DP  RH WIND       PRES   REMARKS
WEST MEMPHIS   CLEAR     74  74 100 CALM      30.12F
$$

ARZ050-053-066-070-073-120800-
SOUTHWEST ARKANSAS

CITY           SKY/WX    TMP DP  RH WIND       PRES   REMARKS
ARKADELPHIA    FAIR      74  74 100 CALM      30.14F FOG
CAMDEN         CLEAR     72  68  88 CALM      30.14S FOG
TEXARKANA      CLEAR     78  73  84 SE5       30.14S
EL DORADO      CLEAR     72  70  93 CALM      30.15S
DE QUEEN       CLEAR     73  72  96 CALM      30.12S FOG
$$

ARZ056-057-069-120800-
SOUTHEAST ARKANSAS

CITY           SKY/WX    TMP DP  RH WIND       PRES   REMARKS
PINE BLUFF     CLEAR     73  71  93 CALM      30.14S
MONTICELLO     CLEAR     72  70  93 CALM      30.14S

$$




USA.gov is the U.S. government's official web portal to all federal, state and local government web resources and services.